Tracking 22879 objects as of 21-Apr-2021
HD Live streaming from Space Station
objects crossing your sky now

SKYSAT C13

Track SKYSAT C13 now!
10-day predictions


NORAD ID: 43802
Int'l Code: 2018-099AW
Perigee: 468.2 km
Apogee: 474.6 km
Inclination: 97.2 °
Period: 93.9 minutes
Semi major axis: 6842 km
RCS: Unknown
Launch date: December 3, 2018
Source: United States (US)
Launch site: AIR FORCE WESTERN TEST RANGE (AFWTR)
aabbcc
Your satellite tracking list
Your tracking list is empty




NASA's NSSDC Master Catalog

Two Line Element Set (TLE):
1 43802U 18099AW  21111.49985654  .00002187  00000-0  69065-4 0  9998
2 43802  97.2081 182.2197 0004707  22.6855 337.4595 15.33877364132225
Source of the keplerian elements: AFSPC